Location: Cerbedi�res
(48.2182°N, 1.4849°W)
Time: 08:38:36
(UTC+00:00)

Cosmos 1862 Rocket - Visible Passes

Search period start: 21 June 2021 00:00
Search period end: 01 July 2021 00:00
Orbit: 604 x 633 km, 82.5° (Epoch: 20 June)

Date Brightness Start Highest point End Pass type
(mag) Time Alt. Az. Time Alt. Az. Time Alt. Az.
24 Jun 7.2 02:40:08 10° NE 02:40:33 10° ENE 02:40:58 10° ENE visible
25 Jun 6.5 02:55:16 10° NNE 02:58:11 17° ENE 03:01:06 10° ESE visible
26 Jun 5.9 03:11:52 10° NNE 03:15:44 27° ENE 03:19:32 10° SE visible
28 Jun 6.9 02:10:53 10° NE 02:11:47 10° ENE 02:12:41 10° ENE visible
29 Jun 6.4 02:26:24 10° NNE 02:29:25 17° ENE 02:32:24 10° ESE visible
30 Jun 5.7 02:43:02 10° N 02:46:56 28° ENE 02:50:47 10° SE visible
